AWG96VP EGPH-LKPR

Flight info

Callsign AWG96VP
Flight time N/A
Altitude 25000
Route GOSAM P600 FENIK L612 LUSIV/N0435F350 L612 DCS DCT ERKIT/N0439F370 N110 DOLAS L603 LAMSO/N0358F230 T606 MONIL P62 PETIK/N0439F370 P62 PAM L620 HMM DCT WRB/N0356F230 Z190 LONLI L984 OKG/N0283F090 L984 BALTU
Aircraft B738/M-SDE2E3FGHIRWXY/LB1

Departure

Time 2026-04-23 12:32
Airport Edinburgh Airport (EGPH)

Arrival

Time N/A
Airport Václav Havel Airport Prague (LKPR)
Time Latitude Longitude Altitude Speed Heading
2026-04-23 12:14 55.94843 -3.36909 115 ft 0 kts 239°
2026-04-23 12:25 55.94853 -3.36877 111 ft 6 kts 242°
2026-04-23 12:25 55.94868 -3.36818 111 ft 3 kts 258°
2026-04-23 12:26 55.94868 -3.36791 111 ft 2 kts 319°
2026-04-23 12:26 55.94858 -3.36781 112 ft 2 kts 350°
2026-04-23 12:26 55.94847 -3.36779 112 ft 2 kts 357°
2026-04-23 12:26 55.94840 -3.36779 112 ft 0 kts 359°
2026-04-23 12:28 55.94841 -3.36779 112 ft 1 kts 359°
2026-04-23 12:28 55.94856 -3.36780 112 ft 3 kts 355°
2026-04-23 12:28 55.94878 -3.36790 111 ft 3 kts 340°
2026-04-23 12:29 55.94884 -3.36794 113 ft 0 kts 338°
2026-04-23 12:29 55.94902 -3.36810 112 ft 7 kts 332°
2026-04-23 12:29 55.94917 -3.36914 115 ft 11 kts 246°
2026-04-23 12:30 55.94881 -3.37031 113 ft 11 kts 240°
2026-04-23 12:30 55.94828 -3.37183 112 ft 19 kts 239°
2026-04-23 12:30 55.94745 -3.37431 111 ft 25 kts 239°
2026-04-23 12:30 55.94657 -3.37690 113 ft 23 kts 239°
2026-04-23 12:31 55.94599 -3.37937 113 ft 21 kts 292°
2026-04-23 12:31 55.94714 -3.38049 113 ft 19 kts 15°
2026-04-23 12:31 55.94802 -3.37843 113 ft 60 kts 59°
2026-04-23 12:31 55.95191 -3.36710 117 ft 148 kts 57°
2026-04-23 12:32 55.95912 -3.34525 1371 ft 157 kts 57°
2026-04-23 12:32 55.96429 -3.33546 1938 ft 166 kts 40°
2026-04-23 12:32 55.97319 -3.32174 2933 ft 169 kts 44°
2026-04-23 12:32 55.98193 -3.30726 3756 ft 176 kts 44°
2026-04-23 12:33 55.99540 -3.28581 4231 ft 215 kts 43°
2026-04-23 12:33 56.00317 -3.27343 4366 ft 233 kts 43°
2026-04-23 12:33 56.01574 -3.25323 4735 ft 248 kts 43°
2026-04-23 12:33 56.02873 -3.23231 5345 ft 253 kts 43°
2026-04-23 12:34 56.04169 -3.21131 5896 ft 254 kts 45°
2026-04-23 12:34 56.05174 -3.18403 5999 ft 272 kts 77°
2026-04-23 12:34 56.05254 -3.15006 6027 ft 277 kts 98°
2026-04-23 12:34 56.05019 -3.11632 6055 ft 274 kts 103°
2026-04-23 12:35 56.04208 -3.08578 6438 ft 273 kts 134°
2026-04-23 12:35 56.02823 -3.06338 7404 ft 270 kts 143°
2026-04-23 12:35 56.01319 -3.04308 8279 ft 273 kts 145°
2026-04-23 12:35 55.99784 -3.02268 9100 ft 277 kts 145°
2026-04-23 12:36 55.98223 -3.00184 9924 ft 282 kts 147°
2026-04-23 12:36 55.96431 -2.98829 10694 ft 283 kts 173°
2026-04-23 12:36 55.94478 -2.99088 11463 ft 284 kts 201°
2026-04-23 12:36 55.92709 -3.00591 12265 ft 286 kts 207°
2026-04-23 12:37 55.90911 -3.02270 13002 ft 292 kts 207°
2026-04-23 12:37 55.89091 -3.03917 13789 ft 295 kts 206°
2026-04-23 12:37 55.87236 -3.05531 14548 ft 299 kts 205°
2026-04-23 12:37 55.85287 -3.06810 15109 ft 308 kts 188°
2026-04-23 12:38 55.83082 -3.06419 15276 ft 331 kts 159°
2026-04-23 12:38 55.81035 -3.04268 15468 ft 353 kts 147°
2026-04-23 12:38 55.78967 -3.01766 15696 ft 370 kts 147°
2026-04-23 12:38 55.76789 -2.99149 16240 ft 377 kts 147°
2026-04-23 12:39 55.74592 -2.96535 16890 ft 381 kts 147°
2026-04-23 12:39 55.72391 -2.93943 17543 ft 385 kts 147°
2026-04-23 12:39 55.70131 -2.91306 18175 ft 389 kts 147°
2026-04-23 12:39 55.67844 -2.88654 18781 ft 394 kts 147°
2026-04-23 12:40 55.65560 -2.86017 19316 ft 398 kts 147°
2026-04-23 12:40 55.63214 -2.83317 19908 ft 400 kts 147°
2026-04-23 12:40 55.60894 -2.80652 20464 ft 403 kts 147°
2026-04-23 12:40 55.58513 -2.77922 21006 ft 406 kts 147°
2026-04-23 12:41 55.56154 -2.75220 21554 ft 409 kts 147°
2026-04-23 12:41 55.53738 -2.72459 22075 ft 413 kts 147°
2026-04-23 12:41 55.51325 -2.69703 22581 ft 416 kts 147°
2026-04-23 12:41 55.48878 -2.66913 23096 ft 419 kts 147°
2026-04-23 12:42 55.46441 -2.64139 23600 ft 422 kts 147°
2026-04-23 12:42 55.43945 -2.61300 24085 ft 426 kts 147°
2026-04-23 12:42 55.41464 -2.58483 24478 ft 429 kts 147°
2026-04-23 12:42 55.38923 -2.55603 24870 ft 432 kts 147°
2026-04-23 12:43 55.36412 -2.52761 25254 ft 435 kts 147°
2026-04-23 12:43 55.33861 -2.49876 25634 ft 438 kts 147°
2026-04-23 12:43 55.31280 -2.46964 25975 ft 442 kts 147°
2026-04-23 12:43 55.28677 -2.44031 26315 ft 445 kts 147°
2026-04-23 12:44 55.26136 -2.40949 26770 ft 446 kts 143°
2026-04-23 12:44 55.23650 -2.37693 27316 ft 443 kts 142°
2026-04-23 12:44 55.21205 -2.34411 27485 ft 449 kts 141°
2026-04-23 12:44 55.18705 -2.31033 27492 ft 451 kts 142°
2026-04-23 12:45 55.16249 -2.27727 27488 ft 446 kts 142°
2026-04-23 12:45 55.13794 -2.24444 27487 ft 441 kts 142°
2026-04-23 12:45 55.11343 -2.21186 27503 ft 442 kts 142°
2026-04-23 12:45 55.08909 -2.17966 27520 ft 444 kts 142°
2026-04-23 12:46 55.06421 -2.14683 27513 ft 445 kts 142°
2026-04-23 12:46 55.03972 -2.11465 27511 ft 446 kts 142°
2026-04-23 12:46 55.01474 -2.08190 27513 ft 446 kts 142°
2026-04-23 12:46 54.98987 -2.04935 27512 ft 447 kts 142°
2026-04-23 12:47 54.96499 -2.01683 27513 ft 446 kts 142°
2026-04-23 12:47 54.94039 -1.98471 27522 ft 446 kts 142°
2026-04-23 12:47 54.91556 -1.95236 27523 ft 446 kts 142°
2026-04-23 12:47 54.89074 -1.92005 27526 ft 445 kts 142°
2026-04-23 12:48 54.86598 -1.88787 27522 ft 445 kts 142°
2026-04-23 12:48 54.84115 -1.85565 27526 ft 444 kts 142°
2026-04-23 12:48 54.81638 -1.82354 27521 ft 444 kts 142°
2026-04-23 12:48 54.79165 -1.79155 27525 ft 443 kts 142°
2026-04-23 12:49 54.76711 -1.75986 27524 ft 443 kts 142°